MST,Max TemperatureF,Mean TemperatureF,Min TemperatureF,Max Dew PointF,MeanDew PointF,Min DewpointF,Max Humidity, Mean Humidity, Min Humidity, Max Sea Level PressureIn, Mean Sea Level PressureIn, Min Sea Level PressureIn, Max VisibilityMiles, Mean VisibilityMiles, Min VisibilityMiles, Max Wind SpeedMPH, Mean Wind SpeedMPH, Max Gust SpeedMPH,PrecipitationIn, CloudCover, Events, WindDirDegrees
2013-1-1,23,16,10,15,11,7,91,80,68,30.55,30.46,30.34,10,8,2,8,4,,0.00,4,,267
2013-1-2,19,14,6,11,7,1,85,78,68,30.61,30.52,30.38,9,6,2,9,6,,0.00,4,Snow,192
2013-1-3,18,10,3,8,3,-2,85,78,65,30.65,30.57,30.41,10,7,2,8,5,,0.00,2,Snow,183
2013-1-4,15,9,3,9,4,-3,85,78,67,30.63,30.50,30.38,10,6,2,8,4,,0.00,5,Snow,183
2013-1-5,15,9,3,8,3,-1,87,81,73,30.68,30.54,30.32,9,5,2,7,2,,0.00,3,Snow,191
2013-1-6,17,11,5,11,7,2,92,85,77,30.46,30.27,30.09,5,3,2,7,2,,0.00,3,Snow,12
2013-1-7,21,14,6,16,9,1,92,81,68,30.38,30.24,30.13,5,2,0,7,2,,0.00,5,Fog,203
2013-1-8,28,24,19,23,19,16,93,82,72,30.47,30.36,30.23,4,3,1,5,1,,0.00,8,,326
2013-1-9,34,26,19,25,20,16,96,83,64,30.45,30.24,29.83,5,2,0,8,3,,0.00,2,Fog,28
2013-1-10,41,31,21,27,23,19,93,80,51,29.77,29.61,29.52,10,4,0,21,10,25,0.14,7,Fog-Snow,304
2013-1-11,23,20,17,19,17,12,93,86,74,30.05,29.79,29.61,10,3,0,16,8,26,0.08,8,Fog-Snow,257
2013-1-12,17,10,3,13,7,-3,93,81,59,30.28,30.07,29.94,10,6,0,8,3,,0.05,7,Fog-Snow,316
2013-1-13,10,5,0,2,-2,-7,88,77,67,30.43,30.33,30.08,10,10,7,7,3,,0.00,3,,195
2013-1-14,12,2,-7,4,-3,-13,80,72,62,30.59,30.52,30.29,10,9,3,9,5,,0.00,5,Snow,183
2013-1-15,17,14,10,9,7,5,80,73,65,30.76,30.69,30.59,10,8,6,6,1,,0.00,8,,326
2013-1-16,23,16,9,13,11,5,88,77,63,30.80,30.75,30.61,8,6,4,7,2,,0.00,4,Snow,246
2013-1-17,17,12,8,11,8,2,92,83,76,30.82,30.68,30.52,10,4,2,8,4,,0.00,3,,313
2013-1-18,16,10,5,10,7,1,92,83,71,30.72,30.62,30.47,7,4,2,7,4,,0.00,5,,192
2013-1-19,16,11,6,10,8,3,92,84,73,30.75,30.59,30.49,5,3,2,7,2,,0.00,6,Snow,315
2013-1-20,14,10,6,10,6,1,92,86,77,30.71,30.56,30.45,5,3,1,8,1,,0.00,6,Snow,300
2013-1-21,16,11,6,9,6,3,96,84,71,30.72,30.57,30.41,5,3,1,6,1,,0.00,6,Snow,295
2013-1-22,19,12,5,15,5,0,92,80,72,30.63,30.48,30.37,6,3,0,6,1,,0.00,5,Fog-Snow,190
2013-1-23,17,14,10,13,8,4,91,82,73,30.55,30.40,30.26,4,2,0,7,2,,0.00,5,Fog-Snow,64
2013-1-24,28,22,16,27,23,12,100,90,81,30.42,30.33,30.24,7,2,1,7,2,,0.19,8,Rain-Snow,294
2013-1-25,33,30,27,32,29,26,100,94,87,30.37,30.26,30.15,2,1,0,10,2,,0.00,8,Fog,275
2013-1-26,33,32,30,32,30,28,100,95,87,30.14,29.97,29.85,4,1,0,8,4,,0.00,8,Fog-Rain,240
2013-1-27,35,30,24,34,29,23,100,94,87,29.94,29.81,29.70,10,2,0,18,4,25,0.49,8,Fog-Rain-Snow,319
2013-1-28,26,24,21,23,20,15,96,83,66,30.05,29.98,29.90,10,8,2,7,3,,0.00,8,Snow,216
2013-1-29,27,23,19,23,20,18,100,87,74,30.26,29.98,29.85,10,3,0,14,7,,0.16,7,Fog-Snow,168
2013-1-30,36,30,24,30,26,23,93,89,76,30.26,30.21,30.16,10,4,1,13,8,,0.06,8,Snow,169
2013-1-31,41,36,30,30,28,24,85,73,57,30.37,30.31,30.26,10,10,6,8,5,,0.00,7,,183